[Iaude] MPEC C193: 2024 CQ6 [a=1.48,e=0.21,i=14.6,H=23.8]
    mpec at cfa.harvard.edu 
    mpec at cfa.harvard.edu
       
    Thu Feb 15 17:37:44 EST 2024
    
    
  
M.P.E.C. 2024-C193                            Issued 2024 February 15, 22:36 UT
     The Minor Planet Electronic Circulars contain information on unusual
         minor planets, routine data on comets and natural satellites,
         and occasional editorial announcements.  They are published
    on behalf of Division F of the International Astronomical Union by the
          Minor Planet Center, Smithsonian Astrophysical Observatory,
                          Cambridge, MA 02138, U.S.A.
			  
             Prepared using the Tamkin Foundation Computer Network
                              MPC at CFA.HARVARD.EDU
            URL https://www.minorplanetcenter.net/    ISSN 1523-6714
                                    2024 CQ6                                    
Observations:
     K24C06Q  C2024 01 20.47168410 58 40.439+24 16 20.71         22.43GVEC193F52
     K24C06Q  C2024 01 20.48412110 58 39.404+24 15 40.23         22.40GVEC193F52
     K24C06Q KC2024 01 21.49718310 57 29.080+23 19 51.81         21.53GVEC193F51
     K24C06Q* C2024 02 04.57684310 32 10.017+08 31 24.72         21.56wXEC193F52
     K24C06Q  C2024 02 04.58717610 32 08.449+08 30 42.52         21.50wXEC193F52
     K24C06Q  C2024 02 05.46352610 30 09.330+07 31 28.62         21.48GVEC193F52
     K24C06Q  C2024 02 15.39458610 05 59.749-03 12 05.06         21.33wXEC193F51
     K24C06Q  C2024 02 15.39522910 05 59.616-03 12 07.66         21.66wXEC193F51
     K24C06Q  C2024 02 15.40624510 05 57.853-03 12 46.75         21.53wXEC193F51
     K24C06Q  C2024 02 15.40688810 05 57.743-03 12 49.41         21.65wXEC193F51
     K24C06Q  C2024 02 15.41787610 05 55.965-03 13 28.68         21.27wXEC193F51
     K24C06Q  C2024 02 15.41852010 05 55.849-03 13 31.03         21.64wXEC193F51
     K24C06Q  C2024 02 15.42951410 05 54.077-03 14 10.40         21.75wXEC193F51
     K24C06Q  C2024 02 15.55473210 05 33.828-03 21 37.56         20.48GVEC193F52
     K24C06Q  C2024 02 15.55537810 05 33.736-03 21 39.52         21.40GVEC193F52
     K24C06Q  C2024 02 15.55602510 05 33.635-03 21 41.89         21.19GVEC193F52
     K24C06Q  C2024 02 15.55667110 05 33.527-03 21 44.14         21.07GVEC193F52
Observer details:
F51 Pan-STARRS 1, Haleakala.  Observers J. Herman, T. Lowe, P. Minguez, A.
    Schultz, I. Smith.  Measurers K. Chambers, T. de Boer, J. Fairlamb, H.
    Gao, M. Huber, C.-C. Lin, E. Magnier, Y. Ramanjooloo, R. Wainscoat, R.
    Weryk.  1.8-m Ritchey-Chretien + CCD.
F52 Pan-STARRS 2, Haleakala.  Observers J. Herman, T. Lowe, P. Minguez, A.
    Schultz, I. Smith.  Measurers K. Chambers, T. de Boer, J. Fairlamb, H.
    Gao, M. Huber, C.-C. Lin, E. Magnier, Y. Ramanjooloo, R. Wainscoat, R.
    Weryk.  1.8-m Ritchey-Chretien + CCD.
Orbital elements:
2024 CQ6                                                 Earth MOID = 0.1863 AU
Epoch 2024 Mar. 31.0 TT = JDT 2460400.5                 Veres                   
M  40.32788              (2000.0)            P               Q                  
n   0.54518607     Peri.  164.52258     -0.54458041     -0.82171868             
a   1.4840193      Node   318.08308     +0.74034601     -0.37687310             
e   0.2139629      Incl.   14.56141     +0.39410655     -0.42748694             
P   1.81           H   23.83          G   0.15           U   6                  
Residuals in seconds of arc
240120 F52  0.2+  0.2+    240215 F51  0.1+  0.1+    240215 F51  0.1-  0.0
240120 F52  0.2-  0.3-    240215 F51  0.4-  0.2-    240215 F52  0.1-  0.3-
240121 F51  0.1-  0.2+    240215 F51  0.1-  0.2+    240215 F52  0.0   0.0
240204 F52  0.2-  0.1-    240215 F51  0.2-  0.1-    240215 F52  0.1+  0.0
240204 F52  0.2-  0.2-    240215 F51  0.1-  0.0     240215 F52  0.0   0.0
240205 F52  0.1+  0.0     240215 F51  0.3-  0.1-
Ephemeris:
2024 CQ6                 a,e,i = 1.48, 0.21, 15                  q = 1.1665
Date    TT    R. A. (2000) Decl.     Delta      r    Elong.  Phase     V
2024 01 16    11 02 36.4 +28 06 48   0.2394  1.1665   135.5    36.3    22.5
...
2024 01 31    10 42 02.7 +13 37 55   0.2046  1.1710   152.9    22.5    21.8
...
2024 02 08    10 24 07.8 +04 40 53   0.1997  1.1776   161.6    15.3    21.5
...
2024 02 14    10 09 23.5 -01 47 11   0.2036  1.1843   163.9    13.4    21.5
2024 02 15    10 06 56.6 -02 48 06   0.2049  1.1856   163.7    13.5    21.5
2024 02 16    10 04 30.8 -03 47 37   0.2063  1.1869   163.3    13.8    21.6
...
2024 02 22    09 50 41.1 -09 10 42   0.2185  1.1956   159.1    17.2    21.8
...
2024 03 01    09 35 27.5 -14 40 13   0.2427  1.2094   151.3    23.1    22.3
...
2024 03 16    09 20 30.8 -20 22 10   0.3062  1.2409   138.5    32.1    23.1
M. P. C. Staff               (C) Copyright 2024 MPC           M.P.E.C. 2024-C193
    
    
More information about the Iaude
mailing list